Date,TemperatureHighF,TemperatureAvgF,TemperatureLowF,DewpointHighF,DewpointAvgF,DewpointLowF,HumidityHigh,HumidityAvg,HumidityLow,PressureMaxIn,PressureMinIn,WindSpeedMaxMPH,WindSpeedAvgMPH,GustSpeedMaxMPH,PrecipitationSumIn
2013-12-5,29.9,29.1,28.5,23.0,22.2,21.6,77,75,73,30.19,30.07,7,6,16,0.01
2013-12-6,28.4,25.3,23.8,22.6,18.7,15.7,81,76,71,30.45,30.20,15,6,16,0.00
2013-12-7,23.8,22.3,20.9,18.5,16.6,14.4,82,78,73,30.56,30.45,15,6,15,0.00
2013-12-8,25.8,23.2,13.7,24.3,19.3,11.4,95,85,72,30.59,29.99,17,5,17,0.00
2013-12-9,26.9,24.9,15.9,25.7,22.3,9.1,95,90,71,30.19,29.93,16,4,22,0.00
2013-12-10,22.9,13.7,2.3,13.8,6.9,-1.9,83,74,63,30.23,30.06,21,4,28,0.00
2013-12-11,23.3,19.1,16.8,20.4,15.4,10.6,91,85,74,30.38,30.30,20,4,20,0.00
2013-12-12,22.4,10.5,-0.5,18.9,3.7,-5.2,86,74,54,30.54,30.32,8,3,22,0.00
2013-12-13,14.6,10.5,9.4,8.7,7.4,6.8,89,87,77,30.32,30.23,1,0,3,0.00
2013-12-14,26.7,23.9,22.0,24.1,22.1,20.3,94,93,87,30.20,29.87,12,5,16,0.00
2013-12-15,25.2,20.6,18.6,23.7,18.7,16.6,94,92,91,29.95,29.90,16,4,18,0.00
2013-12-16,20.3,13.5,0.1,16.3,10.3,-2.6,92,87,76,30.20,30.04,5,2,10,0.00
2013-12-17,27.9,22.7,17.2,25.3,20.6,15.3,94,92,85,30.07,29.96,6,3,16,0.00
2013-12-18,26.7,24.3,20.2,22.5,18.4,16.3,86,78,69,30.20,29.91,6,3,13,0.06
2013-12-19,43.1,38.0,27.8,37.7,33.9,20.9,95,85,75,29.98,29.85,4,2,14,0.27
2013-12-20,41.2,38.6,34.9,40.7,38.0,34.4,98,98,96,29.85,29.71,3,1,8,0.01
2013-12-21,35.3,34.5,32.8,35.0,34.0,32.3,99,98,97,29.82,29.63,9,1,21,0.01
2013-12-22,35.3,33.5,30.7,34.3,32.3,29.2,100,95,93,30.04,29.52,14,4,19,0.04
2013-12-23,30.7,23.7,9.6,29.2,19.7,4.9,94,85,72,30.41,30.03,17,6,17,0.01
2013-12-24,19.6,11.1,4.7,13.2,6.9,0.6,94,83,73,30.57,30.41,14,3,14,0.00
2013-12-25,25.4,21.5,16.0,21.7,17.5,13.1,89,84,80,30.49,30.21,14,3,14,0.00
2013-12-26,31.4,26.9,21.1,29.0,22.9,16.9,95,85,73,30.32,30.10,9,2,21,0.00
2013-12-27,39.8,33.8,30.7,33.3,29.1,27.4,89,83,75,30.32,30.11,16,2,16,0.40
2013-12-28,39.8,36.9,34.0,33.2,31.9,30.5,87,82,77,30.11,30.08,9,3,18,0.07
2013-12-29,38.8,29.3,22.6,33.6,26.0,19.3,91,87,78,30.08,29.75,26,8,26,0.09
2013-12-30,22.6,17.9,13.8,19.0,12.4,9.6,86,79,71,30.30,30.08,14,4,18,0.00
2013-12-31,15.3,14.1,13.4,12.4,10.5,6.8,90,86,72,30.38,30.17,14,3,14,0.00